TimePDT,TemperatureF,Dew PointF,Humidity,Sea Level PressureIn,VisibilityMPH,Wind Direction,Wind SpeedMPH,Gust SpeedMPH,PrecipitationIn,Events,Conditions,WindDirDegrees,DateUTC
12:15 AM,57.7,40.1,52,29.89,10.0,Calm,Calm,-,N/A,,Clear,0,2013-05-07 07:15:00
12:35 AM,54.5,40.5,59,29.88,10.0,Calm,Calm,-,N/A,,Clear,0,2013-05-07 07:35:00
12:55 AM,56.7,40.1,54,29.88,10.0,Calm,Calm,-,N/A,,Clear,0,2013-05-07 07:55:00
1:15 AM,56.8,39.0,51,29.87,10.0,SSW,4.6,-,N/A,,Clear,200,2013-05-07 08:15:00
1:35 AM,56.7,38.5,51,29.87,10.0,South,3.5,-,N/A,,Clear,190,2013-05-07 08:35:00
1:55 AM,54.9,38.8,55,29.88,10.0,SSE,3.5,-,N/A,,Scattered Clouds,150,2013-05-07 08:55:00
2:15 AM,54.3,39.2,57,29.88,10.0,West,4.6,-,N/A,,Clear,260,2013-05-07 09:15:00
2:35 AM,52.5,39.0,60,29.89,10.0,East,5.8,-,N/A,,Clear,80,2013-05-07 09:35:00
3:15 AM,51.4,39.7,64,29.89,10.0,Calm,Calm,-,N/A,,Clear,0,2013-05-07 10:15:00
3:35 AM,51.3,39.7,65,29.89,10.0,ESE,4.6,-,N/A,,Clear,120,2013-05-07 10:35:00
3:55 AM,49.3,40.1,71,29.90,10.0,ESE,9.2,-,N/A,,Clear,120,2013-05-07 10:55:00
4:15 AM,49.8,40.1,69,29.90,10.0,ESE,12.7,-,N/A,,Clear,110,2013-05-07 11:15:00
4:35 AM,49.3,39.2,68,29.90,10.0,ESE,9.2,-,N/A,,Clear,110,2013-05-07 11:35:00
4:55 AM,49.1,39.4,69,29.90,10.0,ESE,6.9,-,N/A,,Clear,120,2013-05-07 11:55:00
5:15 AM,47.3,39.4,74,29.90,10.0,East,9.2,-,N/A,,Clear,100,2013-05-07 12:15:00
5:35 AM,46.8,39.4,75,29.91,10.0,ESE,10.4,-,N/A,,Clear,120,2013-05-07 12:35:00
6:15 AM,47.5,39.2,73,29.91,10.0,ESE,6.9,-,N/A,,Clear,120,2013-05-07 13:15:00
6:35 AM,48.2,39.7,73,29.92,10.0,SE,8.1,-,N/A,,Clear,130,2013-05-07 13:35:00
6:55 AM,51.3,39.7,65,29.92,10.0,ESE,5.8,-,N/A,,Clear,110,2013-05-07 13:55:00
7:15 AM,52.7,39.9,62,29.92,10.0,East,5.8,-,N/A,,Clear,100,2013-05-07 14:15:00
7:35 AM,53.8,41.0,62,29.92,10.0,East,3.5,-,N/A,,Clear,80,2013-05-07 14:35:00
7:55 AM,54.3,40.6,60,29.92,10.0,SE,4.6,-,N/A,,Clear,130,2013-05-07 14:55:00
8:15 AM,55.6,41.0,58,29.92,10.0,Calm,Calm,-,N/A,,Clear,0,2013-05-07 15:15:00
8:35 AM,58.3,41.7,54,29.92,10.0,Calm,Calm,-,N/A,,Clear,0,2013-05-07 15:35:00
8:55 AM,59.9,41.5,51,29.92,10.0,West,3.5,-,N/A,,Clear,280,2013-05-07 15:55:00
9:15 AM,61.9,40.8,46,29.92,10.0,West,4.6,-,N/A,,Clear,280,2013-05-07 16:15:00
9:35 AM,62.8,39.6,42,29.92,10.0,West,3.5,-,N/A,,Clear,280,2013-05-07 16:35:00
9:55 AM,65.1,39.7,39,29.92,10.0,West,5.8,-,N/A,,Clear,280,2013-05-07 16:55:00
10:15 AM,65.7,38.1,36,29.92,10.0,West,6.9,-,N/A,,Clear,270,2013-05-07 17:15:00
10:35 AM,66.9,38.5,35,29.92,10.0,WNW,6.9,-,N/A,,Clear,290,2013-05-07 17:35:00
10:55 AM,68.4,39.0,34,29.91,10.0,West,5.8,-,N/A,,Clear,260,2013-05-07 17:55:00
11:15 AM,69.3,38.7,33,29.91,10.0,NNW,4.6,-,N/A,,Clear,330,2013-05-07 18:15:00
11:35 AM,71.2,39.4,31,29.90,10.0,WNW,4.6,-,N/A,,Clear,290,2013-05-07 18:35:00
11:55 AM,72.0,39.2,30,29.90,10.0,West,5.8,-,N/A,,Clear,260,2013-05-07 18:55:00
12:15 PM,72.9,39.0,29,29.89,10.0,South,3.5,-,N/A,,Clear,180,2013-05-07 19:15:00
12:35 PM,75.6,39.4,27,29.89,10.0,West,6.9,-,N/A,,Clear,280,2013-05-07 19:35:00
12:55 PM,75.2,38.5,27,29.88,10.0,WNW,4.6,-,N/A,,Clear,290,2013-05-07 19:55:00
1:15 PM,74.8,37.2,26,29.87,10.0,Calm,Calm,-,N/A,,Clear,0,2013-05-07 20:15:00
1:35 PM,69.8,39.6,33,29.88,10.0,NW,8.1,26.5,N/A,,Scattered Clouds,320,2013-05-07 20:35:00
1:55 PM,70.7,43.9,38,29.89,10.0,North,4.6,-,N/A,Rain,Light Rain,350,2013-05-07 20:55:00
2:15 PM,70.9,38.3,30,29.88,10.0,NE,5.8,-,N/A,Thunderstorm,Overcast,50,2013-05-07 21:15:00
2:35 PM,72.7,41.4,32,29.88,10.0,NNW,8.1,-,N/A,Thunderstorm,Thunderstorm,340,2013-05-07 21:35:00
2:55 PM,73.6,41.9,32,29.88,10.0,NW,11.5,-,N/A,,Scattered Clouds,310,2013-05-07 21:55:00
3:15 PM,73.6,40.3,30,29.87,10.0,NW,9.2,-,N/A,,Scattered Clouds,310,2013-05-07 22:15:00
3:35 PM,75.9,38.5,26,29.87,10.0,NW,9.2,-,N/A,,Scattered Clouds,320,2013-05-07 22:35:00
3:55 PM,76.6,41.2,28,29.86,10.0,WSW,10.4,16.1,N/A,,Clear,250,2013-05-07 22:55:00
4:15 PM,77.4,40.1,26,29.85,10.0,West,12.7,-,N/A,,Scattered Clouds,260,2013-05-07 23:15:00
4:35 PM,72.0,39.6,31,29.89,10.0,ENE,6.9,-,N/A,Thunderstorm,Mostly Cloudy,70,2013-05-07 23:35:00
4:55 PM,70.0,39.2,33,29.88,10.0,SW,8.1,-,N/A,Thunderstorm,Mostly Cloudy,220,2013-05-07 23:55:00
5:15 PM,69.1,39.9,35,29.88,10.0,WNW,10.4,-,N/A,,Mostly Cloudy,290,2013-05-08 00:15:00
5:35 PM,68.4,40.8,37,29.89,10.0,WNW,8.1,-,N/A,,Mostly Cloudy,290,2013-05-08 00:35:00
5:55 PM,68.2,39.6,35,29.89,10.0,West,12.7,18.4,N/A,Thunderstorm,Mostly Cloudy,270,2013-05-08 00:55:00
6:15 PM,66.4,40.6,39,29.90,10.0,WSW,8.1,-,N/A,Thunderstorm,Scattered Clouds,250,2013-05-08 01:15:00
6:35 PM,65.8,41.4,41,29.90,10.0,West,8.1,-,N/A,Thunderstorm,Clear,260,2013-05-08 01:35:00
6:55 PM,64.8,43.2,45,29.91,10.0,WSW,8.1,-,N/A,,Scattered Clouds,250,2013-05-08 01:55:00
7:15 PM,65.3,42.8,44,29.91,10.0,WSW,4.6,-,N/A,,Mostly Cloudy,250,2013-05-08 02:15:00
7:35 PM,63.7,44.8,50,29.93,7.0,Calm,Calm,-,0.01,Rain-Thunderstorm,Rain,0,2013-05-08 02:35:00
7:55 PM,59.9,48.4,66,29.95,5.0,NE,9.2,-,0.09,Rain-Thunderstorm,Heavy Thunderstorms and Rain,40,2013-05-08 02:55:00
8:15 PM,59.4,49.8,71,29.97,10.0,NE,8.1,-,0.02,Rain,Light Rain,50,2013-05-08 03:15:00
8:35 PM,63.1,42.4,47,29.99,7.0,Calm,Calm,-,0.04,Rain,Rain,0,2013-05-08 03:35:00
8:55 PM,61.3,43.0,51,29.96,10.0,WSW,15.0,23.0,0.06,Rain,Light Rain,250,2013-05-08 03:55:00
9:15 PM,62.1,43.7,51,29.95,10.0,NW,4.6,21.9,0.01,,Overcast,310,2013-05-08 04:15:00
9:35 PM,62.1,43.5,51,29.98,10.0,ENE,5.8,-,0.01,,Overcast,60,2013-05-08 04:35:00
9:55 PM,59.2,45.5,60,29.97,10.0,ESE,3.5,-,0.01,Rain,Light Rain,120,2013-05-08 04:55:00
10:15 PM,59.2,45.9,61,29.98,10.0,ESE,9.2,-,N/A,,Overcast,110,2013-05-08 05:15:00
10:35 PM,59.9,44.1,56,29.98,10.0,SSW,3.5,-,N/A,,Scattered Clouds,200,2013-05-08 05:35:00
10:55 PM,60.4,42.8,52,29.97,10.0,Calm,Calm,-,N/A,,Scattered Clouds,0,2013-05-08 05:55:00
11:15 PM,56.7,45.9,67,29.97,10.0,NNE,6.9,-,N/A,,Scattered Clouds,20,2013-05-08 06:15:00
11:35 PM,57.9,45.9,64,29.98,10.0,East,5.8,-,N/A,,Mostly Cloudy,90,2013-05-08 06:35:00
11:55 PM,55.6,46.2,71,30.00,10.0,Calm,Calm,-,N/A,,Scattered Clouds,0,2013-05-08 06:55:00